Location: Burzi?i
(45.0869°N, 16.0577°E)
Time: 09:11:15
(UTC+00:00)

Timation 1 Rocket - Pass Details

Date: 29 October 2020
Orbit: 896 x 911 km, 70.0° (Epoch: 28 November)

Event Time Altitude Azimuth Distance (km) Brightness Sun altitude
Rises 17:34:34 0° 333° (NNW) 3,549 7.8 -19.4°
Reaches altitude 10° 17:37:05 10° 336° (NNW) 2,605 7.0 -19.8°
Maximum altitude 17:43:07 70° 61° (ENE) 968 4.3 -20.9°
Enters shadow 17:46:17 29° 138° (SE) 1,605 5.3 -21.5°
